User: anonymous   Login
Location: Little Elm
(33.1626°N, 96.9375°W)
Time: 20:28:03
(UTC+00:00)
Language:

NOAA 12 - Orbit

View from above orbital plane
View from above orbital plane
View from above satellite
View from above satellite

Ground track
Ground track

The orbit data is extracted from the following two-line orbital elements,

1 21263U 91032A   22147.93355309  .00000091  00000-0  56056-4 0  9998
2 21263  98.5134 148.3325 0014491  43.4118 316.8201 14.25991470613803
Epoch (UTC): 27 May 2022 22:24:18
Eccentricity: 0.0014491
inclination: 98.5134°
perigee height: 795 km
apogee height: 815 km
right ascension of ascending node: 148.3325°
argument of perigee: 43.4118°
revolutions per day: 14.25991470
mean anomaly at epoch: 316.8201°
orbit number at epoch: 61380

The dashed part of the orbit path shows where the satellite is in the earth's shadow,  

DLR